FW4741 Weather Reports


time (UTC)temp
C
wind
direction
speed
KPH
gust
KPH
rain 1hr
cm
rain 24hr
cm
rain mn
cm
humidity
%
barometer
mb
20260505002103 28 77 3.2 9.7 0.00 0.00 0.00 31 1020.1
20260505001603 28 77 3.2 9.7 0.00 0.00 0.00 31 1020.0
20260505001103 28 77 3.2 9.7 0.00 0.00 0.00 31 1019.9
20260505000604 28 77 3.2 9.7 0.00 0.00 0.00 31 1020.0
20260505000103 28 77 3.2 9.7 0.00 0.00 0.00 31 1019.9
20260504235103 28 77 3.2 9.7 0.00 0.00 0.00 30 1020.0
20260504234603 28 77 3.2 9.7 0.00 0.00 0.00 30 1019.9
20260504234103 29 77 3.2 9.7 0.00 0.00 0.00 30 1019.9
20260504232603 29 77 3.2 9.7 0.00 0.00 0.00 29 1019.9
20260504232103 29 77 3.2 9.7 0.00 0.00 0.00 29 1019.9
20260504231606 29 77 3.2 9.7 0.00 0.00 0.00 30 1020.0
20260504231103 29 77 3.2 9.7 0.00 0.00 0.00 30 1020.0
20260504230603 29 77 3.2 9.7 0.00 0.00 0.00 30 1020.0
20260504225103 29 77 3.2 9.7 0.00 0.00 0.00 30 1020.0
20260504224603 29 77 3.2 9.7 0.00 0.00 0.00 30 1020.1
20260504224103 30 77 3.2 9.7 0.00 0.00 0.00 29 1020.0
20260504223604 30 77 3.2 9.7 0.00 0.00 0.00 30 1020.0
20260504223103 30 77 3.2 9.7 0.00 0.00 0.00 30 1020.1
20260504222604 30 77 3.2 9.7 0.00 0.00 0.00 30 1020.1
20260504222104 30 77 3.2 9.7 0.00 0.00 0.00 30 1020.1
20260504221603 30 77 3.2 9.7 0.00 0.00 0.00 29 1020.1
20260504221103 30 77 3.2 9.7 0.00 0.00 0.00 30 1020.1
20260504220603 30 77 3.2 9.7 0.00 0.00 0.00 30 1020.2
20260504220103 29 77 3.2 9.7 0.00 0.00 0.00 30 1020.3
20260504215104 30 77 3.2 9.7 0.00 0.00 0.00 30 1020.4
20260504214603 29 77 3.2 9.7 0.00 0.00 0.00 30 1020.4
20260504214103 29 77 3.2 9.7 0.00 0.00 0.00 30 1020.4
20260504213603 29 77 3.2 9.7 0.00 0.00 0.00 30 1020.4
20260504213103 29 77 3.2 9.7 0.00 0.00 0.00 30 1020.4
20260504212604 29 77 3.2 9.7 0.00 0.00 0.00 30 1020.4
20260504212104 29 77 3.2 9.7 0.00 0.00 0.00 30 1020.5
20260504211603 28 77 3.2 9.7 0.00 0.00 0.00 31 1020.6
20260504211104 28 77 3.2 9.7 0.00 0.00 0.00 31 1020.6
20260504210603 29 77 3.2 9.7 0.00 0.00 0.00 31 1020.7
20260504205603 28 77 3.2 9.7 0.00 0.00 0.00 31 1020.8
20260504205103 29 77 3.2 9.7 0.00 0.00 0.00 31 1020.9
20260504204603 28 77 3.2 9.7 0.00 0.00 0.00 32 1020.9
20260504204103 28 77 3.2 9.7 0.00 0.00 0.00 31 1021.0
20260504203604 28 77 3.2 9.7 0.00 0.00 0.00 31 1021.1
20260504202604 28 77 3.2 9.7 0.00 0.00 0.00 32 1021.1
20260504202103 28 77 3.2 9.7 0.00 0.00 0.00 32 1021.2
20260504201603 28 77 3.2 9.7 0.00 0.00 0.00 32 1021.3
20260504201103 28 77 3.2 9.7 0.00 0.00 0.00 33 1021.3
20260504200604 28 77 3.2 9.7 0.00 0.00 0.00 32 1021.4
20260504195603 28 77 3.2 9.7 0.00 0.00 0.00 32 1021.5
20260504195103 28 77 3.2 9.7 0.00 0.00 0.00 32 1021.6
20260504194603 28 77 3.2 9.7 0.00 0.00 0.00 32 1021.7
20260504194103 28 77 3.2 9.7 0.00 0.00 0.00 32 1021.8
20260504193603 27 77 3.2 9.7 0.00 0.00 0.00 33 1021.8
20260504192603 27 77 3.2 9.7 0.00 0.00 0.00 32 1022.0
20260504192104 27 77 3.2 9.7 0.00 0.00 0.00 33 1022.0
20260504191603 27 77 3.2 9.7 0.00 0.00 0.00 33 1022.1
20260504190603 27 77 3.2 9.7 0.00 0.00 0.00 33 1022.3
20260504185603 27 77 3.2 9.7 0.00 0.00 0.00 34 1022.4
20260504185103 27 77 3.2 9.7 0.00 0.00 0.00 33 1022.4
20260504184603 27 77 3.2 9.7 0.00 0.00 0.00 33 1022.5
20260504184103 27 77 3.2 9.7 0.00 0.00 0.00 34 1022.6
20260504183103 27 77 3.2 9.7 0.00 0.00 0.00 34 1022.6
20260504182103 27 77 3.2 9.7 0.00 0.00 0.00 34 1022.7
20260504181603 26 77 3.2 9.7 0.00 0.00 0.00 34 1022.8
20260504181103 26 77 3.2 9.7 0.00 0.00 0.00 35 1022.9
20260504180603 26 77 3.2 9.7 0.00 0.00 0.00 34 1022.9
20260504180104 26 77 3.2 9.7 0.00 0.00 0.00 35 1023.1
20260504175604 26 77 3.2 9.7 0.00 0.00 0.00 34 1023.1
20260504175103 26 77 3.2 9.7 0.00 0.00 0.00 34 1023.2
20260504174104 26 77 3.2 9.7 0.00 0.00 0.00 35 1023.3
20260504173603 26 77 3.2 9.7 0.00 0.00 0.00 35 1023.3
20260504173104 26 77 3.2 9.7 0.00 0.00 0.00 35 1023.4
20260504171603 25 77 3.2 9.7 0.00 0.00 0.00 35 1023.5
20260504171103 25 77 3.2 9.7 0.00 0.00 0.00 35 1023.6
20260504170603 25 77 3.2 9.7 0.00 0.00 0.00 36 1023.6
20260504151103 22 77 3.2 9.7 0.00 0.00 0.00 48 1023.9
20260504150604 21 77 3.2 9.7 0.00 0.00 0.00 46 1024.0
20260504150103 21 77 3.2 9.7 0.00 0.00 0.00 50 1024.0
20260504140603 17 77 3.2 9.7 0.00 0.00 0.00 62 1024.1
20260504140104 17 77 3.2 9.7 0.00 0.00 0.00 62 1024.0
20260504130603 15 77 3.2 9.7 0.00 0.00 0.00 68 1023.9
20260504130103 14 77 3.2 9.7 0.00 0.00 0.00 68 1023.9
20260504120104 15 77 3.2 9.7 0.00 0.00 0.00 69 1023.4
20260504110603 15 77 3.2 9.7 0.00 0.00 0.00 59 1023.1
20260504110103 15 77 3.2 9.7 0.00 0.00 0.00 60 1023.0
20260504100603 17 77 3.2 9.7 0.00 0.00 0.00 60 1022.8
20260504100103 17 77 3.2 9.7 0.00 0.00 0.00 60 1022.8
20260504081603 19 77 3.2 9.7 0.00 0.00 0.00 58 1023.0
20260504081104 19 77 3.2 9.7 0.00 0.00 0.00 57 1023.0
20260504080603 19 77 3.2 9.7 0.00 0.00 0.00 57 1023.0
20260504080104 19 77 3.2 9.7 0.00 0.00 0.00 57 1023.1
20260504070103 20 77 3.2 9.7 0.00 0.00 0.00 56 1023.4
20260504050603 20 77 3.2 9.7 0.00 0.00 0.00 56 1023.6
20260504045604 21 77 3.2 9.7 0.00 0.00 0.00 54 1023.5
20260504045103 21 77 3.2 9.7 0.00 0.00 0.00 54 1023.5
20260504044103 21 77 3.2 9.7 0.00 0.00 0.00 54 1023.4
20260504043604 21 77 3.2 9.7 0.00 0.00 0.00 53 1023.4
20260504043104 21 77 3.2 9.7 0.00 0.00 0.00 53 1023.4
20260504042603 22 77 3.2 9.7 0.00 0.00 0.00 52 1023.3
20260504041603 22 77 3.2 9.7 0.00 0.00 0.00 51 1023.2
20260504041104 22 77 3.2 9.7 0.00 0.00 0.00 51 1023.2
20260504040603 22 77 3.2 9.7 0.00 0.00 0.00 50 1023.2
20260504040104 22 77 3.2 9.7 0.00 0.00 0.00 49 1023.2
20260504035103 22 77 3.2 9.7 0.00 0.00 0.00 50 1023.1
20260504034603 22 77 3.2 9.7 0.00 0.00 0.00 50 1023.1
20260504033603 22 77 3.2 9.7 0.00 0.00 0.00 51 1022.9
20260504033103 22 77 3.2 9.7 0.00 0.00 0.00 51 1022.8
20260504032103 23 77 3.2 9.7 0.00 0.00 0.00 49 1022.7
20260504031603 23 77 3.2 9.7 0.00 0.00 0.00 48 1022.6
20260504031104 24 77 3.2 9.7 0.00 0.00 0.00 46 1022.6
20260504030104 24 77 3.2 9.7 0.00 0.00 0.00 45 1022.3
20260504025603 25 77 3.2 9.7 0.00 0.00 0.00 45 1022.3
20260504025104 25 77 3.2 9.7 0.00 0.00 0.00 45 1022.3
20260504024104 25 77 3.2 9.7 0.00 0.00 0.00 44 1022.2
20260504023104 25 77 3.2 9.7 0.00 0.00 0.00 44 1022.0
20260504022604 25 77 3.2 9.7 0.00 0.00 0.00 44 1022.0
20260504022103 25 77 3.2 9.7 0.00 0.00 0.00 44 1022.0
20260504021604 25 77 3.2 9.7 0.00 0.00 0.00 44 1021.8
20260504021104 25 77 3.2 9.7 0.00 0.00 0.00 44 1021.7
20260504020103 25 77 3.2 9.7 0.00 0.00 0.00 43 1021.7
20260504015603 25 77 3.2 9.7 0.00 0.00 0.00 43 1021.6
20260504015104 25 77 3.2 9.7 0.00 0.00 0.00 43 1021.6
20260504014603 25 77 3.2 9.7 0.00 0.00 0.00 43 1021.6
20260504014104 25 77 3.2 9.7 0.00 0.00 0.00 42 1021.5
20260504013103 25 77 3.2 9.7 0.00 0.00 0.00 42 1021.5
20260504012604 25 77 3.2 9.7 0.00 0.00 0.00 42 1021.4
20260504012103 25 77 3.2 9.7 0.00 0.00 0.00 42 1021.4
20260504011104 26 77 3.2 9.7 0.00 0.00 0.00 41 1021.2
20260504005603 26 77 3.2 9.7 0.00 0.00 0.00 40 1021.0
20260504003604 27 77 3.2 9.7 0.00 0.00 0.00 38 1020.7
20260504002603 27 77 3.2 9.7 0.00 0.00 0.00 38 1020.7